Date,TemperatureHighF,TemperatureAvgF,TemperatureLowF,DewpointHighF,DewpointAvgF,DewpointLowF,HumidityHigh,HumidityAvg,HumidityLow,PressureMaxIn,PressureMinIn,WindSpeedMaxMPH,WindSpeedAvgMPH,GustSpeedMaxMPH,PrecipitationSumIn
2013-1-2,44.8,39.3,34.5,39.1,28.1,19.6,100,65,54,29.97,29.85,10,0,10,0.00
2013-1-3,39.4,33.3,27.0,23.7,20.2,18.4,84,59,53,30.03,29.94,9,0,9,0.00
2013-1-4,48.6,37.1,26.4,31.3,24.2,17.8,87,60,51,30.00,29.88,20,2,20,0.00
2013-1-5,49.6,38.5,27.7,32.3,24.1,17.5,72,56,51,30.15,29.97,8,0,8,0.00
2013-1-6,54.7,44.6,37.9,36.3,30.9,25.6,78,59,50,29.97,29.79,14,1,14,0.00
2013-1-7,50.5,40.5,30.4,33.1,27.5,23.1,78,60,51,30.21,29.91,15,1,15,0.00
2013-1-8,50.2,39.5,29.5,35.4,30.4,24.4,100,71,53,30.24,30.15,9,0,9,0.00
2013-1-9,64.4,50.0,35.1,50.7,42.3,32.3,100,77,55,30.18,30.03,16,1,16,0.00
2013-1-10,61.5,48.3,38.3,50.4,39.0,31.3,100,74,48,30.33,30.15,10,0,10,0.00
2013-1-12,53.8,51.0,49.5,53.8,51.0,49.5,100,100,100,29.91,29.88,0,0,0,0.00
2013-1-13,68.4,58.3,50.5,67.1,57.2,50.5,100,97,69,29.88,29.76,12,0,12,0.00
2013-1-14,64.2,57.1,43.0,63.9,56.4,43.0,100,98,89,30.00,29.79,15,1,15,0.00
2013-1-15,43.0,40.9,39.4,43.0,40.9,39.4,100,100,100,30.06,29.88,10,0,10,0.00
2013-1-16,45.0,40.9,37.0,44.8,40.9,37.0,100,100,100,29.88,29.68,8,0,8,0.00
2013-1-17,46.4,40.9,33.6,46.4,40.9,33.6,100,100,100,29.88,29.76,12,0,12,0.00
2013-1-18,41.2,33.1,29.1,33.6,30.5,21.6,100,92,50,30.27,29.85,10,0,10,0.00
2013-1-19,56.7,40.8,29.3,36.5,26.8,21.7,100,59,47,30.24,29.82,18,2,18,0.00
2013-1-20,62.2,48.1,35.4,42.3,31.1,23.7,63,52,48,29.82,29.68,23,5,23,0.00
2013-1-21,56.7,41.2,27.3,37.7,27.2,18.5,74,58,49,29.85,29.56,11,2,11,0.00
2013-1-22,34.9,27.8,19.9,19.9,13.9,6.0,57,55,54,30.06,29.71,18,3,18,0.00
2013-1-23,35.1,24.4,13.5,20.1,10.8,1.5,62,56,54,30.12,29.88,17,1,17,0.00
2013-1-24,29.3,23.4,22.8,21.7,19.7,17.9,87,86,63,30.30,29.79,17,2,17,0.00
2013-1-25,22.8,22.8,22.8,19.5,19.5,19.5,87,87,87,30.30,29.85,12,0,12,0.00
2013-1-26,32.4,24.2,22.8,24.8,20.2,19.5,87,85,70,30.21,29.85,0,0,0,0.00
2013-1-27,41.9,32.4,25.0,25.7,21.2,18.6,85,64,53,30.36,30.21,11,1,11,0.00
2013-1-28,54.5,42.7,32.5,42.4,33.8,21.7,100,72,55,30.27,29.88,19,3,19,0.00
2013-1-29,77.0,58.2,45.3,55.1,47.2,41.0,100,69,47,29.91,29.79,12,1,12,0.00
2013-1-30,71.4,67.0,60.4,65.7,57.6,51.4,100,72,61,29.79,29.09,20,3,20,0.00
2013-1-31,65.8,46.9,32.0,65.8,33.9,17.7,100,62,49,29.74,29.06,29,7,29,0.00